owner,sensor,date,latitude,longitude,vertical_datum,sea_water_practical_salinity,qcFlag 
DISL,ioos:station:DISL:DISL:1,2019-06-01T00:00:00Z,30.2513,-88.0778,2.6,7.9,11111222 
DISL,ioos:station:DISL:DISL:1,2019-06-01T00:30:00Z,30.2513,-88.0778,2.543,7.92,11111222 
DISL,ioos:station:DISL:DISL:1,2019-06-01T01:00:00Z,30.2513,-88.0778,2.6,8.2,11111222 
DISL,ioos:station:DISL:DISL:1,2019-06-01T01:30:00Z,30.2513,-88.0778,2.6,8.4,11111222 
DISL,ioos:station:DISL:DISL:1,2019-06-01T02:00:00Z,30.2513,-88.0778,2.571,8.58,11111222 
DISL,ioos:station:DISL:DISL:1,2019-06-01T02:30:00Z,30.2513,-88.0778,2.572,9.12,11111222 
DISL,ioos:station:DISL:DISL:1,2019-06-01T03:00:00Z,30.2513,-88.0778,2.6,9.7,11111222 
DISL,ioos:station:DISL:DISL:1,2019-06-01T03:30:00Z,30.2513,-88.0778,2.612,9.79,11111222 
DISL,ioos:station:DISL:DISL:1,2019-06-01T04:00:00Z,30.2513,-88.0778,2.6,9.7,11111222 
DISL,ioos:station:DISL:DISL:1,2019-06-01T04:30:00Z,30.2513,-88.0778,2.7,9.7,11111222 
DISL,ioos:station:DISL:DISL:1,2019-06-01T05:00:00Z,30.2513,-88.0778,2.66,9.77,11111222 
DISL,ioos:station:DISL:DISL:1,2019-06-01T05:30:00Z,30.2513,-88.0778,2.7,9.7,11111222 
DISL,ioos:station:DISL:DISL:1,2019-06-01T06:00:00Z,30.2513,-88.0778,2.667,9.68,11111222 
DISL,ioos:station:DISL:DISL:1,2019-06-01T06:30:00Z,30.2513,-88.0778,2.7,9.7,11111222 
DISL,ioos:station:DISL:DISL:1,2019-06-01T07:00:00Z,30.2513,-88.0778,2.697,9.58,11111222 
DISL,ioos:station:DISL:DISL:1,2019-06-01T07:30:00Z,30.2513,-88.0778,2.7,9.6,11111222 
DISL,ioos:station:DISL:DISL:1,2019-06-01T08:00:00Z,30.2513,-88.0778,2.718,9.67,11111222 
DISL,ioos:station:DISL:DISL:1,2019-06-01T08:30:00Z,30.2513,-88.0778,2.7,9.6,11111222 
DISL,ioos:station:DISL:DISL:1,2019-06-01T09:00:00Z,30.2513,-88.0778,2.725,8.82,11111222 
DISL,ioos:station:DISL:DISL:1,2019-06-01T09:30:00Z,30.2513,-88.0778,2.8,8.7,11111222 
DISL,ioos:station:DISL:DISL:1,2019-06-01T10:00:00Z,30.2513,-88.0778,2.783,9.2,11111222 
DISL,ioos:station:DISL:DISL:1,2019-06-01T10:30:00Z,30.2513,-88.0778,2.8,9.0,11111222 
DISL,ioos:station:DISL:DISL:1,2019-06-01T11:00:00Z,30.2513,-88.0778,2.782,9.03,11111222 
DISL,ioos:station:DISL:DISL:1,2019-06-01T11:30:00Z,30.2513,-88.0778,2.8,9.4,11111222 
DISL,ioos:station:DISL:DISL:1,2019-06-01T12:00:00Z,30.2513,-88.0778,2.821,9.4,11111222 
DISL,ioos:station:DISL:DISL:1,2019-06-01T12:30:00Z,30.2513,-88.0778,2.8,9.4,11111222 
DISL,ioos:station:DISL:DISL:1,2019-06-01T13:00:00Z,30.2513,-88.0778,2.855,9.33,11111222 
DISL,ioos:station:DISL:DISL:1,2019-06-01T13:30:00Z,30.2513,-88.0778,2.9,9.3,11111222 
DISL,ioos:station:DISL:DISL:1,2019-06-01T14:00:00Z,30.2513,-88.0778,2.864,9.04,11111222 
DISL,ioos:station:DISL:DISL:1,2019-06-01T14:30:00Z,30.2513,-88.0778,2.9,8.8,11111222 
DISL,ioos:station:DISL:DISL:1,2019-06-01T15:00:00Z,30.2513,-88.0778,2.854,8.79,11111222 
DISL,ioos:station:DISL:DISL:1,2019-06-01T15:30:00Z,30.2513,-88.0778,2.8,8.7,11111222 
DISL,ioos:station:DISL:DISL:1,2019-06-01T16:00:00Z,30.2513,-88.0778,2.829,8.64,11111222 
DISL,ioos:station:DISL:DISL:1,2019-06-01T16:30:00Z,30.2513,-88.0778,2.8,8.7,11111222 
DISL,ioos:station:DISL:DISL:1,2019-06-01T17:00:00Z,30.2513,-88.0778,2.795,8.65,11111222 
DISL,ioos:station:DISL:DISL:1,2019-06-01T17:30:00Z,30.2513,-88.0778,2.8,8.6,11111222 
DISL,ioos:station:DISL:DISL:1,2019-06-01T18:00:00Z,30.2513,-88.0778,2.729,8.77,11111222 
DISL,ioos:station:DISL:DISL:1,2019-06-01T18:30:00Z,30.2513,-88.0778,2.7,8.7,11111222 
DISL,ioos:station:DISL:DISL:1,2019-06-01T19:00:00Z,30.2513,-88.0778,2.682,8.69,11111222 
DISL,ioos:station:DISL:DISL:1,2019-06-01T19:30:00Z,30.2513,-88.0778,2.7,8.6,11111222 
DISL,ioos:station:DISL:DISL:1,2019-06-01T20:00:00Z,30.2513,-88.0778,2.624,8.6,11111222 
DISL,ioos:station:DISL:DISL:1,2019-06-01T20:30:00Z,30.2513,-88.0778,2.6,8.6,11111222 
DISL,ioos:station:DISL:DISL:1,2019-06-01T21:00:00Z,30.2513,-88.0778,2.596,8.33,11111222 
DISL,ioos:station:DISL:DISL:1,2019-06-01T21:30:00Z,30.2513,-88.0778,2.6,8.6,11111222 
DISL,ioos:station:DISL:DISL:1,2019-06-01T22:00:00Z,30.2513,-88.0778,2.574,8.56,11111222 
DISL,ioos:station:DISL:DISL:1,2019-06-01T22:30:00Z,30.2513,-88.0778,2.5,7.4,11111222 
DISL,ioos:station:DISL:DISL:1,2019-06-01T23:00:00Z,30.2513,-88.0778,2.494,7.01,11111222 
DISL,ioos:station:DISL:DISL:1,2019-06-01T23:30:00Z,30.2513,-88.0778,2.3,6.8,11111222 
DISL,ioos:station:DISL:DISL:1,2019-06-02T00:00:00Z,30.2513,-88.0778,2.516,6.84,11111222 
DISL,ioos:station:DISL:DISL:1,2019-06-02T00:30:00Z,30.2513,-88.0778,2.5,6.9,11111222 
DISL,ioos:station:DISL:DISL:1,2019-06-02T01:00:00Z,30.2513,-88.0778,2.446,6.85,11111222 
DISL,ioos:station:DISL:DISL:1,2019-06-02T01:30:00Z,30.2513,-88.0778,2.5,6.5,11111222 
DISL,ioos:station:DISL:DISL:1,2019-06-02T02:00:00Z,30.2513,-88.0778,2.457,6.4,11111222 
DISL,ioos:station:DISL:DISL:1,2019-06-02T02:30:00Z,30.2513,-88.0778,2.5,6.5,11111222 
DISL,ioos:station:DISL:DISL:1,2019-06-02T03:00:00Z,30.2513,-88.0778,2.481,6.72,11111222 
DISL,ioos:station:DISL:DISL:1,2019-06-02T03:30:00Z,30.2513,-88.0778,2.5,6.8,11111222 
DISL,ioos:station:DISL:DISL:1,2019-06-02T04:00:00Z,30.2513,-88.0778,2.485,6.69,11111222 
DISL,ioos:station:DISL:DISL:1,2019-06-02T04:30:00Z,30.2513,-88.0778,2.5,6.8,11111222 
DISL,ioos:station:DISL:DISL:1,2019-06-02T05:00:00Z,30.2513,-88.0778,2.526,6.65,11111222 
DISL,ioos:station:DISL:DISL:1,2019-06-02T05:30:00Z,30.2513,-88.0778,2.6,7.2,11111222 
DISL,ioos:station:DISL:DISL:1,2019-06-02T06:00:00Z,30.2513,-88.0778,2.561,7.24,11111222 
DISL,ioos:station:DISL:DISL:1,2019-06-02T06:30:00Z,30.2513,-88.0778,2.6,7.5,11111222 
DISL,ioos:station:DISL:DISL:1,2019-06-02T07:00:00Z,30.2513,-88.0778,2.602,7.81,11111222 
DISL,ioos:station:DISL:DISL:1,2019-06-02T07:30:00Z,30.2513,-88.0778,2.6,8.0,11111222 
DISL,ioos:station:DISL:DISL:1,2019-06-02T08:00:00Z,30.2513,-88.0778,2.641,8.18,11111222 
DISL,ioos:station:DISL:DISL:1,2019-06-02T08:30:00Z,30.2513,-88.0778,2.7,13.5,11111222 
DISL,ioos:station:DISL:DISL:1,2019-06-02T09:00:00Z,30.2513,-88.0778,2.67,14.67,11111222 
DISL,ioos:station:DISL:DISL:1,2019-06-02T09:30:00Z,30.2513,-88.0778,2.7,15.1,11111222 
DISL,ioos:station:DISL:DISL:1,2019-06-02T10:00:00Z,30.2513,-88.0778,2.729,15.98,11111222 
DISL,ioos:station:DISL:DISL:1,2019-06-02T10:30:00Z,30.2513,-88.0778,2.8,17.0,11111222 
DISL,ioos:station:DISL:DISL:1,2019-06-02T11:00:00Z,30.2513,-88.0778,2.769,18.39,11111222 
DISL,ioos:station:DISL:DISL:1,2019-06-02T11:30:00Z,30.2513,-88.0778,2.8,19.1,11111222 
DISL,ioos:station:DISL:DISL:1,2019-06-02T12:00:00Z,30.2513,-88.0778,2.825,17.39,11111222 
DISL,ioos:station:DISL:DISL:1,2019-06-02T12:30:00Z,30.2513,-88.0778,2.8,19.7,11111222 
DISL,ioos:station:DISL:DISL:1,2019-06-02T13:00:00Z,30.2513,-88.0778,2.848,18.22,11111222 
DISL,ioos:station:DISL:DISL:1,2019-06-02T13:30:00Z,30.2513,-88.0778,2.9,18.7,11111222 
DISL,ioos:station:DISL:DISL:1,2019-06-02T14:00:00Z,30.2513,-88.0778,2.864,20.19,11111222 
DISL,ioos:station:DISL:DISL:1,2019-06-02T14:30:00Z,30.2513,-88.0778,2.9,17.2,11111222 
DISL,ioos:station:DISL:DISL:1,2019-06-02T15:00:00Z,30.2513,-88.0778,2.893,11.36,11111222 
DISL,ioos:station:DISL:DISL:1,2019-06-02T15:30:00Z,30.2513,-88.0778,2.9,11.5,11111222 
DISL,ioos:station:DISL:DISL:1,2019-06-02T16:00:00Z,30.2513,-88.0778,2.896,8.84,11111222 
DISL,ioos:station:DISL:DISL:1,2019-06-02T16:30:00Z,30.2513,-88.0778,2.9,10.9,11111222 
DISL,ioos:station:DISL:DISL:1,2019-06-02T17:00:00Z,30.2513,-88.0778,2.856,8.74,11111222 
DISL,ioos:station:DISL:DISL:1,2019-06-02T17:30:00Z,30.2513,-88.0778,2.8,8.1,11111222 
DISL,ioos:station:DISL:DISL:1,2019-06-02T18:00:00Z,30.2513,-88.0778,2.786,8.11,11111222 
DISL,ioos:station:DISL:DISL:1,2019-06-02T18:30:00Z,30.2513,-88.0778,2.8,8.4,11111222 
DISL,ioos:station:DISL:DISL:1,2019-06-02T19:00:00Z,30.2513,-88.0778,2.725,7.95,11111222 
DISL,ioos:station:DISL:DISL:1,2019-06-02T19:30:00Z,30.2513,-88.0778,2.7,7.9,11111222 
DISL,ioos:station:DISL:DISL:1,2019-06-02T20:00:00Z,30.2513,-88.0778,2.646,8.03,11111222 
DISL,ioos:station:DISL:DISL:1,2019-06-02T20:30:00Z,30.2513,-88.0778,2.6,8.0,11111222 
DISL,ioos:station:DISL:DISL:1,2019-06-02T21:00:00Z,30.2513,-88.0778,2.583,7.0,11111222 
DISL,ioos:station:DISL:DISL:1,2019-06-02T21:30:00Z,30.2513,-88.0778,2.5,6.8,11111222 
DISL,ioos:station:DISL:DISL:1,2019-06-02T22:00:00Z,30.2513,-88.0778,2.537,6.82,11111222 
DISL,ioos:station:DISL:DISL:1,2019-06-02T22:30:00Z,30.2513,-88.0778,2.5,6.8,11111222 
DISL,ioos:station:DISL:DISL:1,2019-06-02T23:00:00Z,30.2513,-88.0778,2.501,6.74,11111222 
DISL,ioos:station:DISL:DISL:1,2019-06-02T23:30:00Z,30.2513,-88.0778,2.5,6.6,11111222 
DISL,ioos:station:DISL:DISL:1,2019-06-03T00:00:00Z,30.2513,-88.0778,2.459,6.57,11111222 
DISL,ioos:station:DISL:DISL:1,2019-06-03T00:30:00Z,30.2513,-88.0778,2.5,6.5,11111222 
DISL,ioos:station:DISL:DISL:1,2019-06-03T01:00:00Z,30.2513,-88.0778,2.438,6.63,11111222 
DISL,ioos:station:DISL:DISL:1,2019-06-03T01:30:00Z,30.2513,-88.0778,2.5,6.7,11111222 
DISL,ioos:station:DISL:DISL:1,2019-06-03T02:00:00Z,30.2513,-88.0778,2.441,6.88,11111222 
DISL,ioos:station:DISL:DISL:1,2019-06-03T02:30:00Z,30.2513,-88.0778,2.4,7.0,11111222 
DISL,ioos:station:DISL:DISL:1,2019-06-03T03:00:00Z,30.2513,-88.0778,2.436,8.14,11111222 
DISL,ioos:station:DISL:DISL:1,2019-06-03T03:30:00Z,30.2513,-88.0778,2.5,8.3,11111222 
DISL,ioos:station:DISL:DISL:1,2019-06-03T04:00:00Z,30.2513,-88.0778,2.477,8.31,11111222 
DISL,ioos:station:DISL:DISL:1,2019-06-03T04:30:00Z,30.2513,-88.0778,2.5,8.3,11111222 
DISL,ioos:station:DISL:DISL:1,2019-06-03T05:00:00Z,30.2513,-88.0778,2.497,7.9,11111222 
DISL,ioos:station:DISL:DISL:1,2019-06-03T05:30:00Z,30.2513,-88.0778,2.5,7.0,11111222 
DISL,ioos:station:DISL:DISL:1,2019-06-03T06:00:00Z,30.2513,-88.0778,2.544,6.83,11111222 
DISL,ioos:station:DISL:DISL:1,2019-06-03T06:30:00Z,30.2513,-88.0778,2.6,7.0,11111222 
DISL,ioos:station:DISL:DISL:1,2019-06-03T07:00:00Z,30.2513,-88.0778,2.582,7.14,11111222 
DISL,ioos:station:DISL:DISL:1,2019-06-03T07:30:00Z,30.2513,-88.0778,2.6,7.3,11111222 
DISL,ioos:station:DISL:DISL:1,2019-06-03T08:00:00Z,30.2513,-88.0778,2.634,8.83,11111222 
DISL,ioos:station:DISL:DISL:1,2019-06-03T08:30:00Z,30.2513,-88.0778,2.7,13.6,11111222 
DISL,ioos:station:DISL:DISL:1,2019-06-03T09:00:00Z,30.2513,-88.0778,2.675,14.16,11111222 
DISL,ioos:station:DISL:DISL:1,2019-06-03T09:30:00Z,30.2513,-88.0778,2.7,14.2,11111222 
DISL,ioos:station:DISL:DISL:1,2019-06-03T10:00:00Z,30.2513,-88.0778,2.717,18.27,11111222 
DISL,ioos:station:DISL:DISL:1,2019-06-03T10:30:00Z,30.2513,-88.0778,2.8,18.4,11111222 
DISL,ioos:station:DISL:DISL:1,2019-06-03T11:00:00Z,30.2513,-88.0778,2.775,18.32,11111222 
DISL,ioos:station:DISL:DISL:1,2019-06-03T11:30:00Z,30.2513,-88.0778,2.8,16.2,11111222 
DISL,ioos:station:DISL:DISL:1,2019-06-03T12:00:00Z,30.2513,-88.0778,2.839,18.24,11111222 
DISL,ioos:station:DISL:DISL:1,2019-06-03T12:30:00Z,30.2513,-88.0778,2.9,18.1,11111222 
DISL,ioos:station:DISL:DISL:1,2019-06-03T13:00:00Z,30.2513,-88.0778,2.876,17.98,11111222 
DISL,ioos:station:DISL:DISL:1,2019-06-03T13:30:00Z,30.2513,-88.0778,2.9,17.8,11111222 
DISL,ioos:station:DISL:DISL:1,2019-06-03T14:00:00Z,30.2513,-88.0778,2.897,17.89,11111222 
DISL,ioos:station:DISL:DISL:1,2019-06-03T14:30:00Z,30.2513,-88.0778,2.9,18.3,11111222 
DISL,ioos:station:DISL:DISL:1,2019-06-03T15:00:00Z,30.2513,-88.0778,2.905,17.47,11111222 
DISL,ioos:station:DISL:DISL:1,2019-06-03T15:30:00Z,30.2513,-88.0778,2.9,17.0,11111222 
DISL,ioos:station:DISL:DISL:1,2019-06-03T16:00:00Z,30.2513,-88.0778,2.889,17.5,11111222 
DISL,ioos:station:DISL:DISL:1,2019-06-03T16:30:00Z,30.2513,-88.0778,2.9,9.2,11111222 
DISL,ioos:station:DISL:DISL:1,2019-06-03T17:00:00Z,30.2513,-88.0778,2.901,8.33,11111222 
DISL,ioos:station:DISL:DISL:1,2019-06-03T17:30:00Z,30.2513,-88.0778,2.9,8.0,11111222 
DISL,ioos:station:DISL:DISL:1,2019-06-03T18:00:00Z,30.2513,-88.0778,2.847,7.59,11111222 
DISL,ioos:station:DISL:DISL:1,2019-06-03T18:30:00Z,30.2513,-88.0778,2.8,8.0,11111222 
DISL,ioos:station:DISL:DISL:1,2019-06-03T19:00:00Z,30.2513,-88.0778,2.776,7.48,11111222 
DISL,ioos:station:DISL:DISL:1,2019-06-03T19:30:00Z,30.2513,-88.0778,2.7,7.5,11111222 
DISL,ioos:station:DISL:DISL:1,2019-06-03T20:00:00Z,30.2513,-88.0778,2.682,7.64,11111222 
DISL,ioos:station:DISL:DISL:1,2019-06-03T20:30:00Z,30.2513,-88.0778,2.6,7.4,11111222 
DISL,ioos:station:DISL:DISL:1,2019-06-03T21:00:00Z,30.2513,-88.0778,2.608,7.54,11111222 
DISL,ioos:station:DISL:DISL:1,2019-06-03T21:30:00Z,30.2513,-88.0778,2.6,7.2,11111222 
DISL,ioos:station:DISL:DISL:1,2019-06-03T22:00:00Z,30.2513,-88.0778,2.525,6.8,11111222 
DISL,ioos:station:DISL:DISL:1,2019-06-03T22:30:00Z,30.2513,-88.0778,2.5,6.7,11111222 
DISL,ioos:station:DISL:DISL:1,2019-06-03T23:00:00Z,30.2513,-88.0778,2.478,6.68,11111222 
DISL,ioos:station:DISL:DISL:1,2019-06-03T23:30:00Z,30.2513,-88.0778,2.4,6.6,11111222 
DISL,ioos:station:DISL:DISL:1,2019-06-04T00:00:00Z,30.2513,-88.0778,2.43,6.51,11111222 
DISL,ioos:station:DISL:DISL:1,2019-06-04T00:30:00Z,30.2513,-88.0778,2.4,6.5,11111222 
DISL,ioos:station:DISL:DISL:1,2019-06-04T01:00:00Z,30.2513,-88.0778,2.413,6.94,11111222 
DISL,ioos:station:DISL:DISL:1,2019-06-04T01:30:00Z,30.2513,-88.0778,2.4,6.7,11111222 
DISL,ioos:station:DISL:DISL:1,2019-06-04T02:00:00Z,30.2513,-88.0778,2.404,6.23,11111222 
DISL,ioos:station:DISL:DISL:1,2019-06-04T02:30:00Z,30.2513,-88.0778,2.4,6.7,11111222 
DISL,ioos:station:DISL:DISL:1,2019-06-04T03:00:00Z,30.2513,-88.0778,2.405,6.64,11111222 
DISL,ioos:station:DISL:DISL:1,2019-06-04T03:30:00Z,30.2513,-88.0778,2.4,6.7,11111222 
DISL,ioos:station:DISL:DISL:1,2019-06-04T04:00:00Z,30.2513,-88.0778,2.411,6.86,11111222 
DISL,ioos:station:DISL:DISL:1,2019-06-04T04:30:00Z,30.2513,-88.0778,2.4,7.0,11111222 
DISL,ioos:station:DISL:DISL:1,2019-06-04T05:00:00Z,30.2513,-88.0778,2.431,6.98,11111222 
DISL,ioos:station:DISL:DISL:1,2019-06-04T05:30:00Z,30.2513,-88.0778,2.4,7.1,11111222 
DISL,ioos:station:DISL:DISL:1,2019-06-04T06:00:00Z,30.2513,-88.0778,2.47,7.11,11111222 
DISL,ioos:station:DISL:DISL:1,2019-06-04T06:30:00Z,30.2513,-88.0778,2.5,6.8,11111222 
DISL,ioos:station:DISL:DISL:1,2019-06-04T07:00:00Z,30.2513,-88.0778,2.519,6.78,11111222 
DISL,ioos:station:DISL:DISL:1,2019-06-04T07:30:00Z,30.2513,-88.0778,2.5,6.8,11111222 
DISL,ioos:station:DISL:DISL:1,2019-06-04T08:00:00Z,30.2513,-88.0778,2.572,6.88,11111222 
DISL,ioos:station:DISL:DISL:1,2019-06-04T08:30:00Z,30.2513,-88.0778,2.6,7.0,11111222 
DISL,ioos:station:DISL:DISL:1,2019-06-04T09:00:00Z,30.2513,-88.0778,2.625,7.16,11111222 
DISL,ioos:station:DISL:DISL:1,2019-06-04T09:30:00Z,30.2513,-88.0778,2.7,8.2,11111222 
DISL,ioos:station:DISL:DISL:1,2019-06-04T10:00:00Z,30.2513,-88.0778,2.675,12.12,11111222 
DISL,ioos:station:DISL:DISL:1,2019-06-04T10:30:00Z,30.2513,-88.0778,2.7,13.7,11111222 
DISL,ioos:station:DISL:DISL:1,2019-06-04T11:00:00Z,30.2513,-88.0778,2.738,15.15,11111222 
DISL,ioos:station:DISL:DISL:1,2019-06-04T11:30:00Z,30.2513,-88.0778,2.8,15.7,11111222 
DISL,ioos:station:DISL:DISL:1,2019-06-04T12:00:00Z,30.2513,-88.0778,2.801,15.85,11111222 
DISL,ioos:station:DISL:DISL:1,2019-06-04T12:30:00Z,30.2513,-88.0778,2.8,15.9,11111222 
DISL,ioos:station:DISL:DISL:1,2019-06-04T13:00:00Z,30.2513,-88.0778,2.855,15.69,11111222 
DISL,ioos:station:DISL:DISL:1,2019-06-04T13:30:00Z,30.2513,-88.0778,2.9,15.9,11111222 
DISL,ioos:station:DISL:DISL:1,2019-06-04T14:00:00Z,30.2513,-88.0778,2.889,15.13,11111222 
DISL,ioos:station:DISL:DISL:1,2019-06-04T14:30:00Z,30.2513,-88.0778,2.9,16.8,11111222 
DISL,ioos:station:DISL:DISL:1,2019-06-04T15:00:00Z,30.2513,-88.0778,2.927,15.51,11111222 
DISL,ioos:station:DISL:DISL:1,2019-06-04T15:30:00Z,30.2513,-88.0778,2.9,16.7,11111222 
DISL,ioos:station:DISL:DISL:1,2019-06-04T16:00:00Z,30.2513,-88.0778,2.926,12.04,11111222 
DISL,ioos:station:DISL:DISL:1,2019-06-04T16:30:00Z,30.2513,-88.0778,2.9,7.8,11111222 
DISL,ioos:station:DISL:DISL:1,2019-06-04T17:00:00Z,30.2513,-88.0778,2.931,7.05,11111222 
DISL,ioos:station:DISL:DISL:1,2019-06-04T17:30:00Z,30.2513,-88.0778,2.9,7.0,11111222 
DISL,ioos:station:DISL:DISL:1,2019-06-04T18:00:00Z,30.2513,-88.0778,2.866,6.9,11111222 
DISL,ioos:station:DISL:DISL:1,2019-06-04T18:30:00Z,30.2513,-88.0778,2.8,6.9,11111222 
DISL,ioos:station:DISL:DISL:1,2019-06-04T19:00:00Z,30.2513,-88.0778,2.808,6.8,11111222 
DISL,ioos:station:DISL:DISL:1,2019-06-04T19:30:00Z,30.2513,-88.0778,2.8,6.8,11111222 
DISL,ioos:station:DISL:DISL:1,2019-06-04T20:00:00Z,30.2513,-88.0778,2.729,6.87,11111222 
DISL,ioos:station:DISL:DISL:1,2019-06-04T20:30:00Z,30.2513,-88.0778,2.7,6.8,11111222 
DISL,ioos:station:DISL:DISL:1,2019-06-04T21:00:00Z,30.2513,-88.0778,2.628,6.76,11111222 
DISL,ioos:station:DISL:DISL:1,2019-06-04T21:30:00Z,30.2513,-88.0778,2.6,6.8,11111222 
DISL,ioos:station:DISL:DISL:1,2019-06-04T22:00:00Z,30.2513,-88.0778,2.536,6.72,11111222 
DISL,ioos:station:DISL:DISL:1,2019-06-04T22:30:00Z,30.2513,-88.0778,2.5,6.7,11111222 
DISL,ioos:station:DISL:DISL:1,2019-06-04T23:00:00Z,30.2513,-88.0778,2.48,6.71,11111222 
DISL,ioos:station:DISL:DISL:1,2019-06-04T23:30:00Z,30.2513,-88.0778,2.42,7.27,11111222 
DISL,ioos:station:DISL:DISL:1,2019-06-05T00:00:00Z,30.2513,-88.0778,2.4,7.3,11111222 
DISL,ioos:station:DISL:DISL:1,2019-06-05T00:30:00Z,30.2513,-88.0778,2.423,7.56,11111222 
DISL,ioos:station:DISL:DISL:1,2019-06-05T01:00:00Z,30.2513,-88.0778,2.4,7.8,11111222 
DISL,ioos:station:DISL:DISL:1,2019-06-05T01:30:00Z,30.2513,-88.0778,2.4,8.0,11111222 
DISL,ioos:station:DISL:DISL:1,2019-06-05T02:00:00Z,30.2513,-88.0778,2.36,8.09,11111222 
DISL,ioos:station:DISL:DISL:1,2019-06-05T02:30:00Z,30.2513,-88.0778,2.4,8.0,11111222 
DISL,ioos:station:DISL:DISL:1,2019-06-05T03:00:00Z,30.2513,-88.0778,2.345,7.99,11111222 
DISL,ioos:station:DISL:DISL:1,2019-06-05T03:30:00Z,30.2513,-88.0778,2.4,7.9,11111222 
DISL,ioos:station:DISL:DISL:1,2019-06-05T04:00:00Z,30.2513,-88.0778,2.327,7.92,11111222 
DISL,ioos:station:DISL:DISL:1,2019-06-05T04:30:00Z,30.2513,-88.0778,2.4,9.6,11111222 
DISL,ioos:station:DISL:DISL:1,2019-06-05T05:00:00Z,30.2513,-88.0778,2.366,10.87,11111222 
DISL,ioos:station:DISL:DISL:1,2019-06-05T05:30:00Z,30.2513,-88.0778,2.4,11.1,11111222 
DISL,ioos:station:DISL:DISL:1,2019-06-05T06:00:00Z,30.2513,-88.0778,2.382,11.35,11111222 
DISL,ioos:station:DISL:DISL:1,2019-06-05T06:30:00Z,30.2513,-88.0778,2.4,11.1,11111222 
DISL,ioos:station:DISL:DISL:1,2019-06-05T07:00:00Z,30.2513,-88.0778,2.438,9.38,11111222 
DISL,ioos:station:DISL:DISL:1,2019-06-05T07:30:00Z,30.2513,-88.0778,2.5,8.0,11111222 
DISL,ioos:station:DISL:DISL:1,2019-06-05T08:00:00Z,30.2513,-88.0778,2.488,7.99,11111222 
DISL,ioos:station:DISL:DISL:1,2019-06-05T08:30:00Z,30.2513,-88.0778,2.5,7.9,11111222 
DISL,ioos:station:DISL:DISL:1,2019-06-05T09:00:00Z,30.2513,-88.0778,2.537,7.5,11111222 
DISL,ioos:station:DISL:DISL:1,2019-06-05T09:30:00Z,30.2513,-88.0778,2.6,7.3,11111222 
DISL,ioos:station:DISL:DISL:1,2019-06-05T10:00:00Z,30.2513,-88.0778,2.622,7.15,11111222 
DISL,ioos:station:DISL:DISL:1,2019-06-05T10:30:00Z,30.2513,-88.0778,2.6,7.1,11111222 
DISL,ioos:station:DISL:DISL:1,2019-06-05T11:00:00Z,30.2513,-88.0778,2.69,6.95,11111222 
DISL,ioos:station:DISL:DISL:1,2019-06-05T11:30:00Z,30.2513,-88.0778,2.7,8.4,11111222 
DISL,ioos:station:DISL:DISL:1,2019-06-05T12:00:00Z,30.2513,-88.0778,2.752,7.7,11111222 
DISL,ioos:station:DISL:DISL:1,2019-06-05T13:00:00Z,30.2513,-88.0778,2.819,10.7,11111222 
DISL,ioos:station:DISL:DISL:1,2019-06-05T14:00:00Z,30.2513,-88.0778,2.862,17.51,11111222 
DISL,ioos:station:DISL:DISL:1,2019-06-05T14:30:00Z,30.2513,-88.0778,2.9,17.7,11111222 
DISL,ioos:station:DISL:DISL:1,2019-06-05T15:00:00Z,30.2513,-88.0778,2.906,19.91,11111222 
DISL,ioos:station:DISL:DISL:1,2019-06-05T15:30:00Z,30.2513,-88.0778,2.9,19.3,11111222 
DISL,ioos:station:DISL:DISL:1,2019-06-05T16:00:00Z,30.2513,-88.0778,2.94,14.3,11111222 
DISL,ioos:station:DISL:DISL:1,2019-06-05T16:30:00Z,30.2513,-88.0778,3.0,16.3,11111222 
DISL,ioos:station:DISL:DISL:1,2019-06-05T17:00:00Z,30.2513,-88.0778,2.957,13.91,11111222 
DISL,ioos:station:DISL:DISL:1,2019-06-05T17:30:00Z,30.2513,-88.0778,3.0,8.9,11111222 
DISL,ioos:station:DISL:DISL:1,2019-06-05T18:00:00Z,30.2513,-88.0778,2.974,6.84,11111222 
DISL,ioos:station:DISL:DISL:1,2019-06-05T18:30:00Z,30.2513,-88.0778,2.9,6.5,11111222 
DISL,ioos:station:DISL:DISL:1,2019-06-05T19:00:00Z,30.2513,-88.0778,2.908,6.48,11111222 
DISL,ioos:station:DISL:DISL:1,2019-06-05T19:30:00Z,30.2513,-88.0778,2.9,6.5,11111222 
DISL,ioos:station:DISL:DISL:1,2019-06-05T20:00:00Z,30.2513,-88.0778,2.816,6.37,11111222 
DISL,ioos:station:DISL:DISL:1,2019-06-05T20:30:00Z,30.2513,-88.0778,2.8,6.9,11111222 
DISL,ioos:station:DISL:DISL:1,2019-06-05T21:00:00Z,30.2513,-88.0778,2.786,6.41,11111222 
DISL,ioos:station:DISL:DISL:1,2019-06-05T21:30:00Z,30.2513,-88.0778,2.7,6.4,11111222 
DISL,ioos:station:DISL:DISL:1,2019-06-05T22:00:00Z,30.2513,-88.0778,2.696,6.42,11111222 
DISL,ioos:station:DISL:DISL:1,2019-06-05T22:30:00Z,30.2513,-88.0778,2.6,6.9,11111222 
DISL,ioos:station:DISL:DISL:1,2019-06-05T23:00:00Z,30.2513,-88.0778,2.542,7.13,11111222 
DISL,ioos:station:DISL:DISL:1,2019-06-05T23:30:00Z,30.2513,-88.0778,2.6,7.1,11111222 
DISL,ioos:station:DISL:DISL:1,2019-06-06T00:00:00Z,30.2513,-88.0778,2.494,7.13,11111222 
DISL,ioos:station:DISL:DISL:1,2019-06-06T00:30:00Z,30.2513,-88.0778,2.5,7.1,11111222 
DISL,ioos:station:DISL:DISL:1,2019-06-06T01:00:00Z,30.2513,-88.0778,2.45,7.16,11111222 
DISL,ioos:station:DISL:DISL:1,2019-06-06T01:30:00Z,30.2513,-88.0778,2.4,7.9,11111222 
DISL,ioos:station:DISL:DISL:1,2019-06-06T02:00:00Z,30.2513,-88.0778,2.405,8.71,11111222 
DISL,ioos:station:DISL:DISL:1,2019-06-06T02:30:00Z,30.2513,-88.0778,2.4,8.7,11111222 
DISL,ioos:station:DISL:DISL:1,2019-06-06T03:00:00Z,30.2513,-88.0778,2.393,8.77,11111222 
DISL,ioos:station:DISL:DISL:1,2019-06-06T03:30:00Z,30.2513,-88.0778,2.378,8.7,11111222 
DISL,ioos:station:DISL:DISL:1,2019-06-06T04:00:00Z,30.2513,-88.0778,2.4,8.1,11111222 
DISL,ioos:station:DISL:DISL:1,2019-06-06T04:30:00Z,30.2513,-88.0778,2.371,8.04,11111222 
DISL,ioos:station:DISL:DISL:1,2019-06-06T05:00:00Z,30.2513,-88.0778,2.4,7.9,11111222 
DISL,ioos:station:DISL:DISL:1,2019-06-06T05:30:00Z,30.2513,-88.0778,2.392,7.77,11111222 
DISL,ioos:station:DISL:DISL:1,2019-06-06T06:00:00Z,30.2513,-88.0778,2.4,8.0,11111222 
DISL,ioos:station:DISL:DISL:1,2019-06-06T06:30:00Z,30.2513,-88.0778,2.4,8.1,11111222 
DISL,ioos:station:DISL:DISL:1,2019-06-06T07:00:00Z,30.2513,-88.0778,2.43,8.7,11111222 
DISL,ioos:station:DISL:DISL:1,2019-06-06T07:30:00Z,30.2513,-88.0778,2.462,10.11,11111222 
DISL,ioos:station:DISL:DISL:1,2019-06-06T08:00:00Z,30.2513,-88.0778,2.5,9.3,11111222 
DISL,ioos:station:DISL:DISL:1,2019-06-06T08:30:00Z,30.2513,-88.0778,2.6,7.9,11111222 
DISL,ioos:station:DISL:DISL:1,2019-06-06T09:00:00Z,30.2513,-88.0778,2.622,7.75,11111222 
DISL,ioos:station:DISL:DISL:1,2019-06-06T09:30:00Z,30.2513,-88.0778,2.6,7.7,11111222 
DISL,ioos:station:DISL:DISL:1,2019-06-06T10:00:00Z,30.2513,-88.0778,2.578,8.74,11111222 
DISL,ioos:station:DISL:DISL:1,2019-06-06T10:30:00Z,30.2513,-88.0778,2.6,6.5,11111222 
DISL,ioos:station:DISL:DISL:1,2019-06-06T11:00:00Z,30.2513,-88.0778,2.697,7.14,11111222 
DISL,ioos:station:DISL:DISL:1,2019-06-06T11:30:00Z,30.2513,-88.0778,2.7,12.8,11111222 
DISL,ioos:station:DISL:DISL:1,2019-06-06T12:00:00Z,30.2513,-88.0778,2.721,14.31,11111222 
DISL,ioos:station:DISL:DISL:1,2019-06-06T12:30:00Z,30.2513,-88.0778,2.8,13.0,11111222 
DISL,ioos:station:DISL:DISL:1,2019-06-06T13:00:00Z,30.2513,-88.0778,2.772,14.51,11111222 
DISL,ioos:station:DISL:DISL:1,2019-06-06T13:30:00Z,30.2513,-88.0778,2.8,14.5,11111222 
DISL,ioos:station:DISL:DISL:1,2019-06-06T14:00:00Z,30.2513,-88.0778,2.886,13.89,11111222 
DISL,ioos:station:DISL:DISL:1,2019-06-06T14:30:00Z,30.2513,-88.0778,2.9,13.7,11111222 
DISL,ioos:station:DISL:DISL:1,2019-06-06T15:00:00Z,30.2513,-88.0778,2.959,13.55,11111222 
DISL,ioos:station:DISL:DISL:1,2019-06-06T15:30:00Z,30.2513,-88.0778,3.0,10.6,11111222 
DISL,ioos:station:DISL:DISL:1,2019-06-06T16:00:00Z,30.2513,-88.0778,3.002,6.41,11111222 
DISL,ioos:station:DISL:DISL:1,2019-06-06T16:30:00Z,30.2513,-88.0778,3.0,6.4,11111222 